owner,sensor,date,latitude,longitude,air_pressure(mBar),qcFlag 
LUMCON,ioos:station:LUMCON:103:1,2011-01-03T15:00:00Z,30.1889,-90.1683,1025.8,11111222 
LUMCON,ioos:station:LUMCON:103:1,2011-01-03T16:00:00Z,30.1889,-90.1683,1026.4,11111222 
LUMCON,ioos:station:LUMCON:103:1,2011-01-03T18:00:00Z,30.1889,-90.1683,1024.4,11111222 
LUMCON,ioos:station:LUMCON:103:1,2011-01-03T21:00:00Z,30.1889,-90.1683,1022.2,11111222 
LUMCON,ioos:station:LUMCON:103:1,2011-01-04T17:00:00Z,30.1889,-90.1683,1021.5,11111222 
LUMCON,ioos:station:LUMCON:103:1,2011-01-04T19:00:00Z,30.1889,-90.1683,1019.5,11111222 
LUMCON,ioos:station:LUMCON:103:1,2011-01-04T20:00:00Z,30.1889,-90.1683,1018.6,11111222 
LUMCON,ioos:station:LUMCON:103:1,2011-01-06T23:00:00Z,30.1889,-90.1683,1012.7,11111222 
LUMCON,ioos:station:LUMCON:103:1,2011-01-07T00:00:00Z,30.1889,-90.1683,1012.9,11111222 
LUMCON,ioos:station:LUMCON:103:1,2011-01-07T15:00:00Z,30.1889,-90.1683,1012.2,11111222 
LUMCON,ioos:station:LUMCON:103:1,2011-01-07T16:00:00Z,30.1889,-90.1683,1012.4,11111222 
LUMCON,ioos:station:LUMCON:103:1,2011-01-07T20:00:00Z,30.1889,-90.1683,1007.7,11111222 
LUMCON,ioos:station:LUMCON:103:1,2011-01-07T21:00:00Z,30.1889,-90.1683,1007.1,11111222 
LUMCON,ioos:station:LUMCON:103:1,2011-01-07T23:00:00Z,30.1889,-90.1683,1007.0,11111222 
LUMCON,ioos:station:LUMCON:103:1,2011-01-08T00:00:00Z,30.1889,-90.1683,1007.2,11111222 
LUMCON,ioos:station:LUMCON:103:1,2011-01-10T23:00:00Z,30.1889,-90.1683,1017.7,11111222 
LUMCON,ioos:station:LUMCON:103:1,2011-01-12T22:00:00Z,30.1889,-90.1683,1032.7,11111222 
LUMCON,ioos:station:LUMCON:103:1,2011-01-12T23:00:00Z,30.1889,-90.1683,1033.0,11111222 
LUMCON,ioos:station:LUMCON:103:1,2011-01-13T06:00:00Z,30.1889,-90.1683,1034.2,11111222 
LUMCON,ioos:station:LUMCON:103:1,2011-01-13T17:00:00Z,30.1889,-90.1683,1036.0,11111222 
LUMCON,ioos:station:LUMCON:103:1,2011-01-13T19:00:00Z,30.1889,-90.1683,1033.7,11111222 
LUMCON,ioos:station:LUMCON:103:1,2011-01-19T17:00:00Z,30.1889,-90.1683,1018.5,11111222 
LUMCON,ioos:station:LUMCON:103:1,2011-01-19T18:00:00Z,30.1889,-90.1683,1017.7,11111222 
LUMCON,ioos:station:LUMCON:103:1,2011-01-19T19:00:00Z,30.1889,-90.1683,1017.1,11111222 
LUMCON,ioos:station:LUMCON:103:1,2011-01-19T20:00:00Z,30.1889,-90.1683,1016.4,11111222 
LUMCON,ioos:station:LUMCON:103:1,2011-01-19T21:00:00Z,30.1889,-90.1683,1016.4,11111222 
LUMCON,ioos:station:LUMCON:103:1,2011-01-19T22:00:00Z,30.1889,-90.1683,1016.6,11111222 
LUMCON,ioos:station:LUMCON:103:1,2011-01-19T23:00:00Z,30.1889,-90.1683,1016.8,11111222 
LUMCON,ioos:station:LUMCON:103:1,2011-01-20T00:00:00Z,30.1889,-90.1683,1016.7,11111222 
LUMCON,ioos:station:LUMCON:103:1,2011-01-20T01:00:00Z,30.1889,-90.1683,1016.9,11111222 
LUMCON,ioos:station:LUMCON:103:1,2011-01-20T02:00:00Z,30.1889,-90.1683,1017.0,11111222 
LUMCON,ioos:station:LUMCON:103:1,2011-01-20T03:00:00Z,30.1889,-90.1683,1016.7,11111222 
LUMCON,ioos:station:LUMCON:103:1,2011-01-20T04:00:00Z,30.1889,-90.1683,1016.6,11111222 
LUMCON,ioos:station:LUMCON:103:1,2011-01-20T05:00:00Z,30.1889,-90.1683,1016.2,11111222 
LUMCON,ioos:station:LUMCON:103:1,2011-01-20T06:00:00Z,30.1889,-90.1683,1015.3,11111222 
LUMCON,ioos:station:LUMCON:103:1,2011-01-20T07:00:00Z,30.1889,-90.1683,1015.1,11111222 
LUMCON,ioos:station:LUMCON:103:1,2011-01-20T08:00:00Z,30.1889,-90.1683,1014.7,11111222 
LUMCON,ioos:station:LUMCON:103:1,2011-01-20T09:00:00Z,30.1889,-90.1683,1014.5,11111222 
LUMCON,ioos:station:LUMCON:103:1,2011-01-20T10:00:00Z,30.1889,-90.1683,1014.3,11111222 
LUMCON,ioos:station:LUMCON:103:1,2011-01-20T12:00:00Z,30.1889,-90.1683,1014.7,11111222 
LUMCON,ioos:station:LUMCON:103:1,2011-01-20T13:00:00Z,30.1889,-90.1683,1014.9,11111222 
LUMCON,ioos:station:LUMCON:103:1,2011-01-20T14:00:00Z,30.1889,-90.1683,1015.4,11111222 
LUMCON,ioos:station:LUMCON:103:1,2011-01-20T15:00:00Z,30.1889,-90.1683,1015.8,11111222 
LUMCON,ioos:station:LUMCON:103:1,2011-01-20T16:00:00Z,30.1889,-90.1683,1016.3,11111222 
LUMCON,ioos:station:LUMCON:103:1,2011-01-20T17:00:00Z,30.1889,-90.1683,1016.1,11111222 
LUMCON,ioos:station:LUMCON:103:1,2011-01-20T18:00:00Z,30.1889,-90.1683,1014.6,11111222 
LUMCON,ioos:station:LUMCON:103:1,2011-01-20T19:00:00Z,30.1889,-90.1683,1013.1,11111222 
LUMCON,ioos:station:LUMCON:103:1,2011-01-20T20:00:00Z,30.1889,-90.1683,1012.6,11111222 
LUMCON,ioos:station:LUMCON:103:1,2011-01-20T21:00:00Z,30.1889,-90.1683,1012.3,11111222 
LUMCON,ioos:station:LUMCON:103:1,2011-01-20T22:00:00Z,30.1889,-90.1683,1012.2,11111222 
LUMCON,ioos:station:LUMCON:103:1,2011-01-20T23:00:00Z,30.1889,-90.1683,1012.0,11111222 
LUMCON,ioos:station:LUMCON:103:1,2011-01-21T00:00:00Z,30.1889,-90.1683,1012.1,11111222 
LUMCON,ioos:station:LUMCON:103:1,2011-01-21T01:00:00Z,30.1889,-90.1683,1012.6,11111222 
LUMCON,ioos:station:LUMCON:103:1,2011-01-21T02:00:00Z,30.1889,-90.1683,1012.9,11111222 
LUMCON,ioos:station:LUMCON:103:1,2011-01-21T03:00:00Z,30.1889,-90.1683,1013.7,11111222 
LUMCON,ioos:station:LUMCON:103:1,2011-01-21T04:00:00Z,30.1889,-90.1683,1014.4,11111222 
LUMCON,ioos:station:LUMCON:103:1,2011-01-21T05:00:00Z,30.1889,-90.1683,1014.7,11111222 
LUMCON,ioos:station:LUMCON:103:1,2011-01-21T06:00:00Z,30.1889,-90.1683,1014.8,11111222 
LUMCON,ioos:station:LUMCON:103:1,2011-01-21T07:00:00Z,30.1889,-90.1683,1015.0,11111222 
LUMCON,ioos:station:LUMCON:103:1,2011-01-21T08:00:00Z,30.1889,-90.1683,1015.4,11111222 
LUMCON,ioos:station:LUMCON:103:1,2011-01-21T09:00:00Z,30.1889,-90.1683,1015.5,11111222 
LUMCON,ioos:station:LUMCON:103:1,2011-01-21T10:00:00Z,30.1889,-90.1683,1015.3,11111222 
LUMCON,ioos:station:LUMCON:103:1,2011-01-21T11:00:00Z,30.1889,-90.1683,1015.5,11111222 
LUMCON,ioos:station:LUMCON:103:1,2011-01-21T12:00:00Z,30.1889,-90.1683,1015.9,11111222 
LUMCON,ioos:station:LUMCON:103:1,2011-01-21T13:00:00Z,30.1889,-90.1683,1016.1,11111222 
LUMCON,ioos:station:LUMCON:103:1,2011-01-21T14:00:00Z,30.1889,-90.1683,1016.4,11111222 
LUMCON,ioos:station:LUMCON:103:1,2011-01-21T15:00:00Z,30.1889,-90.1683,1016.9,11111222 
LUMCON,ioos:station:LUMCON:103:1,2011-01-21T16:00:00Z,30.1889,-90.1683,1017.4,11111222 
LUMCON,ioos:station:LUMCON:103:1,2011-01-21T17:00:00Z,30.1889,-90.1683,1017.3,11111222 
LUMCON,ioos:station:LUMCON:103:1,2011-01-21T18:00:00Z,30.1889,-90.1683,1016.6,11111222 
LUMCON,ioos:station:LUMCON:103:1,2011-01-21T19:00:00Z,30.1889,-90.1683,1015.7,11111222 
LUMCON,ioos:station:LUMCON:103:1,2011-01-21T20:00:00Z,30.1889,-90.1683,1014.9,11111222 
LUMCON,ioos:station:LUMCON:103:1,2011-01-21T21:00:00Z,30.1889,-90.1683,1014.5,11111222 
LUMCON,ioos:station:LUMCON:103:1,2011-01-21T22:00:00Z,30.1889,-90.1683,1014.2,11111222 
LUMCON,ioos:station:LUMCON:103:1,2011-01-21T23:00:00Z,30.1889,-90.1683,1014.0,11111222 
LUMCON,ioos:station:LUMCON:103:1,2011-01-22T00:00:00Z,30.1889,-90.1683,1014.6,11111222 
LUMCON,ioos:station:LUMCON:103:1,2011-01-22T01:00:00Z,30.1889,-90.1683,1014.8,11111222 
LUMCON,ioos:station:LUMCON:103:1,2011-01-22T02:00:00Z,30.1889,-90.1683,1015.0,11111222 
LUMCON,ioos:station:LUMCON:103:1,2011-01-22T03:00:00Z,30.1889,-90.1683,1015.0,11111222 
LUMCON,ioos:station:LUMCON:103:1,2011-01-22T04:00:00Z,30.1889,-90.1683,1015.4,11111222 
LUMCON,ioos:station:LUMCON:103:1,2011-01-22T05:00:00Z,30.1889,-90.1683,1015.5,11111222 
LUMCON,ioos:station:LUMCON:103:1,2011-01-22T06:00:00Z,30.1889,-90.1683,1015.2,11111222 
LUMCON,ioos:station:LUMCON:103:1,2011-01-22T07:00:00Z,30.1889,-90.1683,1015.3,11111222 
LUMCON,ioos:station:LUMCON:103:1,2011-01-22T08:00:00Z,30.1889,-90.1683,1015.9,11111222 
LUMCON,ioos:station:LUMCON:103:1,2011-01-22T09:00:00Z,30.1889,-90.1683,1015.9,11111222 
LUMCON,ioos:station:LUMCON:103:1,2011-01-22T10:00:00Z,30.1889,-90.1683,1016.0,11111222 
LUMCON,ioos:station:LUMCON:103:1,2011-01-22T11:00:00Z,30.1889,-90.1683,1016.4,11111222 
LUMCON,ioos:station:LUMCON:103:1,2011-01-22T13:00:00Z,30.1889,-90.1683,1017.7,11111222 
LUMCON,ioos:station:LUMCON:103:1,2011-01-22T14:00:00Z,30.1889,-90.1683,1018.5,11111222 
LUMCON,ioos:station:LUMCON:103:1,2011-01-22T15:00:00Z,30.1889,-90.1683,1019.2,11111222 
LUMCON,ioos:station:LUMCON:103:1,2011-01-22T16:00:00Z,30.1889,-90.1683,1020.1,11111222 
LUMCON,ioos:station:LUMCON:103:1,2011-01-22T17:00:00Z,30.1889,-90.1683,1020.2,11111222 
LUMCON,ioos:station:LUMCON:103:1,2011-01-22T18:00:00Z,30.1889,-90.1683,1019.3,11111222 
LUMCON,ioos:station:LUMCON:103:1,2011-01-22T19:00:00Z,30.1889,-90.1683,1018.4,11111222 
LUMCON,ioos:station:LUMCON:103:1,2011-01-22T20:00:00Z,30.1889,-90.1683,1017.4,11111222 
LUMCON,ioos:station:LUMCON:103:1,2011-01-22T21:00:00Z,30.1889,-90.1683,1017.0,11111222 
LUMCON,ioos:station:LUMCON:103:1,2011-01-22T22:00:00Z,30.1889,-90.1683,1016.8,11111222 
LUMCON,ioos:station:LUMCON:103:1,2011-01-22T23:00:00Z,30.1889,-90.1683,1016.7,11111222 
LUMCON,ioos:station:LUMCON:103:1,2011-01-23T00:00:00Z,30.1889,-90.1683,1016.8,11111222 
LUMCON,ioos:station:LUMCON:103:1,2011-01-23T01:00:00Z,30.1889,-90.1683,1017.1,11111222 
LUMCON,ioos:station:LUMCON:103:1,2011-01-23T02:00:00Z,30.1889,-90.1683,1017.0,11111222 
LUMCON,ioos:station:LUMCON:103:1,2011-01-23T03:00:00Z,30.1889,-90.1683,1017.3,11111222 
LUMCON,ioos:station:LUMCON:103:1,2011-01-23T04:00:00Z,30.1889,-90.1683,1017.1,11111222 
LUMCON,ioos:station:LUMCON:103:1,2011-01-23T05:00:00Z,30.1889,-90.1683,1017.4,11111222 
LUMCON,ioos:station:LUMCON:103:1,2011-01-23T06:00:00Z,30.1889,-90.1683,1018.2,11111222 
LUMCON,ioos:station:LUMCON:103:1,2011-01-23T07:00:00Z,30.1889,-90.1683,1018.3,11111222 
LUMCON,ioos:station:LUMCON:103:1,2011-01-23T08:00:00Z,30.1889,-90.1683,1018.2,11111222 
LUMCON,ioos:station:LUMCON:103:1,2011-01-23T10:00:00Z,30.1889,-90.1683,1018.1,11111222 
LUMCON,ioos:station:LUMCON:103:1,2011-01-23T12:00:00Z,30.1889,-90.1683,1018.5,11111222 
LUMCON,ioos:station:LUMCON:103:1,2011-01-23T13:00:00Z,30.1889,-90.1683,1019.3,11111222 
LUMCON,ioos:station:LUMCON:103:1,2011-01-23T15:00:00Z,30.1889,-90.1683,1020.4,11111222 
LUMCON,ioos:station:LUMCON:103:1,2011-01-23T16:00:00Z,30.1889,-90.1683,1020.8,11111222 
LUMCON,ioos:station:LUMCON:103:1,2011-01-23T17:00:00Z,30.1889,-90.1683,1020.7,11111222 
LUMCON,ioos:station:LUMCON:103:1,2011-01-23T18:00:00Z,30.1889,-90.1683,1020.0,11111222 
LUMCON,ioos:station:LUMCON:103:1,2011-01-23T21:00:00Z,30.1889,-90.1683,1018.2,11111222 
LUMCON,ioos:station:LUMCON:103:1,2011-01-23T22:00:00Z,30.1889,-90.1683,1018.3,11111222 
LUMCON,ioos:station:LUMCON:103:1,2011-01-24T00:00:00Z,30.1889,-90.1683,1018.9,1111122 
LUMCON,ioos:station:LUMCON:103:1,2011-01-24T01:00:00Z,30.1889,-90.1683,1019.1,1111122 
LUMCON,ioos:station:LUMCON:103:1,2011-01-24T03:00:00Z,30.1889,-90.1683,1019.6,1111122 
LUMCON,ioos:station:LUMCON:103:1,2011-01-24T04:00:00Z,30.1889,-90.1683,1019.5,1111122 
LUMCON,ioos:station:LUMCON:103:1,2011-01-24T06:00:00Z,30.1889,-90.1683,1018.8,1111122 
LUMCON,ioos:station:LUMCON:103:1,2011-01-24T07:00:00Z,30.1889,-90.1683,1018.0,11111222 
LUMCON,ioos:station:LUMCON:103:1,2011-01-24T09:00:00Z,30.1889,-90.1683,1017.5,1111122 
LUMCON,ioos:station:LUMCON:103:1,2011-01-24T11:00:00Z,30.1889,-90.1683,1016.8,1111122 
LUMCON,ioos:station:LUMCON:103:1,2011-01-24T13:00:00Z,30.1889,-90.1683,1017.0,1111122 
LUMCON,ioos:station:LUMCON:103:1,2011-01-24T14:00:00Z,30.1889,-90.1683,1017.6,1111122 
LUMCON,ioos:station:LUMCON:103:1,2011-01-24T15:00:00Z,30.1889,-90.1683,1018.4,1111122 
LUMCON,ioos:station:LUMCON:103:1,2011-01-24T16:00:00Z,30.1889,-90.1683,1018.6,1111122 
LUMCON,ioos:station:LUMCON:103:1,2011-01-24T17:00:00Z,30.1889,-90.1683,1018.3,1111122 
LUMCON,ioos:station:LUMCON:103:1,2011-01-24T19:00:00Z,30.1889,-90.1683,1016.5,1111122 
LUMCON,ioos:station:LUMCON:103:1,2011-01-24T20:00:00Z,30.1889,-90.1683,1015.6,1111122 
LUMCON,ioos:station:LUMCON:103:1,2011-01-24T21:00:00Z,30.1889,-90.1683,1015.5,1111122 
LUMCON,ioos:station:LUMCON:103:1,2011-01-24T23:00:00Z,30.1889,-90.1683,1014.9,1111122 
LUMCON,ioos:station:LUMCON:103:1,2011-01-25T01:00:00Z,30.1889,-90.1683,1014.7,1111122 
LUMCON,ioos:station:LUMCON:103:1,2011-01-25T17:00:00Z,30.1889,-90.1683,1009.6,1111122 
LUMCON,ioos:station:LUMCON:103:1,2011-01-25T18:00:00Z,30.1889,-90.1683,1009.0,1111122 
LUMCON,ioos:station:LUMCON:103:1,2011-01-25T19:00:00Z,30.1889,-90.1683,1008.9,11111222 
LUMCON,ioos:station:LUMCON:103:1,2011-01-25T20:00:00Z,30.1889,-90.1683,1009.0,11111222 
LUMCON,ioos:station:LUMCON:103:1,2011-01-25T21:00:00Z,30.1889,-90.1683,1009.6,11111222 
LUMCON,ioos:station:LUMCON:103:1,2011-01-25T22:00:00Z,30.1889,-90.1683,1010.4,11111222 
LUMCON,ioos:station:LUMCON:103:1,2011-01-26T00:00:00Z,30.1889,-90.1683,1012.5,11111222 
LUMCON,ioos:station:LUMCON:103:1,2011-01-26T01:00:00Z,30.1889,-90.1683,1013.3,11111222 
LUMCON,ioos:station:LUMCON:103:1,2011-01-26T02:00:00Z,30.1889,-90.1683,1014.2,11111222 
LUMCON,ioos:station:LUMCON:103:1,2011-01-26T03:00:00Z,30.1889,-90.1683,1015.1,11111222 
LUMCON,ioos:station:LUMCON:103:1,2011-01-26T04:00:00Z,30.1889,-90.1683,1015.8,11111222 
LUMCON,ioos:station:LUMCON:103:1,2011-01-26T05:00:00Z,30.1889,-90.1683,1016.8,11111222 
LUMCON,ioos:station:LUMCON:103:1,2011-01-26T06:00:00Z,30.1889,-90.1683,1017.2,11111222 
LUMCON,ioos:station:LUMCON:103:1,2011-01-26T07:00:00Z,30.1889,-90.1683,1017.4,11111222 
LUMCON,ioos:station:LUMCON:103:1,2011-01-26T08:00:00Z,30.1889,-90.1683,1017.5,11111222 
LUMCON,ioos:station:LUMCON:103:1,2011-01-26T09:00:00Z,30.1889,-90.1683,1018.1,11111222 
LUMCON,ioos:station:LUMCON:103:1,2011-01-26T10:00:00Z,30.1889,-90.1683,1018.3,11111222 
LUMCON,ioos:station:LUMCON:103:1,2011-01-26T11:00:00Z,30.1889,-90.1683,1019.1,11111222 
LUMCON,ioos:station:LUMCON:103:1,2011-01-26T12:00:00Z,30.1889,-90.1683,1019.8,11111222 
LUMCON,ioos:station:LUMCON:103:1,2011-01-26T13:00:00Z,30.1889,-90.1683,1020.4,11111222 
LUMCON,ioos:station:LUMCON:103:1,2011-01-26T14:00:00Z,30.1889,-90.1683,1021.3,11111222 
LUMCON,ioos:station:LUMCON:103:1,2011-01-26T15:00:00Z,30.1889,-90.1683,1021.7,11111222 
LUMCON,ioos:station:LUMCON:103:1,2011-01-26T16:00:00Z,30.1889,-90.1683,1022.4,11111222 
LUMCON,ioos:station:LUMCON:103:1,2011-01-26T17:00:00Z,30.1889,-90.1683,1022.8,11111222 
LUMCON,ioos:station:LUMCON:103:1,2011-01-26T18:00:00Z,30.1889,-90.1683,1022.2,11111222 
LUMCON,ioos:station:LUMCON:103:1,2011-01-26T19:00:00Z,30.1889,-90.1683,1021.1,11111222 
LUMCON,ioos:station:LUMCON:103:1,2011-01-26T20:00:00Z,30.1889,-90.1683,1020.2,11111222 
LUMCON,ioos:station:LUMCON:103:1,2011-01-26T21:00:00Z,30.1889,-90.1683,1019.9,11111222 
LUMCON,ioos:station:LUMCON:103:1,2011-01-26T22:00:00Z,30.1889,-90.1683,1020.0,11111222 
LUMCON,ioos:station:LUMCON:103:1,2011-01-26T23:00:00Z,30.1889,-90.1683,1020.0,11111222 
LUMCON,ioos:station:LUMCON:103:1,2011-01-27T00:00:00Z,30.1889,-90.1683,1020.4,11111222 
LUMCON,ioos:station:LUMCON:103:1,2011-01-27T01:00:00Z,30.1889,-90.1683,1021.0,11111222 
LUMCON,ioos:station:LUMCON:103:1,2011-01-27T02:00:00Z,30.1889,-90.1683,1021.4,11111222 
LUMCON,ioos:station:LUMCON:103:1,2011-01-27T03:00:00Z,30.1889,-90.1683,1021.5,11111222 
LUMCON,ioos:station:LUMCON:103:1,2011-01-27T04:00:00Z,30.1889,-90.1683,1021.7,11111222 
LUMCON,ioos:station:LUMCON:103:1,2011-01-27T05:00:00Z,30.1889,-90.1683,1021.9,11111222 
LUMCON,ioos:station:LUMCON:103:1,2011-01-27T06:00:00Z,30.1889,-90.1683,1022.2,11111222 
LUMCON,ioos:station:LUMCON:103:1,2011-01-27T07:00:00Z,30.1889,-90.1683,1021.8,11111222 
LUMCON,ioos:station:LUMCON:103:1,2011-01-27T08:00:00Z,30.1889,-90.1683,1021.9,11111222 
LUMCON,ioos:station:LUMCON:103:1,2011-01-27T09:00:00Z,30.1889,-90.1683,1021.7,11111222 
LUMCON,ioos:station:LUMCON:103:1,2011-01-27T10:00:00Z,30.1889,-90.1683,1021.6,11111222 
LUMCON,ioos:station:LUMCON:103:1,2011-01-27T11:00:00Z,30.1889,-90.1683,1021.5,11111222 
LUMCON,ioos:station:LUMCON:103:1,2011-01-27T12:00:00Z,30.1889,-90.1683,1021.9,11111222 
LUMCON,ioos:station:LUMCON:103:1,2011-01-27T13:00:00Z,30.1889,-90.1683,1022.3,11111222 
LUMCON,ioos:station:LUMCON:103:1,2011-01-27T14:00:00Z,30.1889,-90.1683,1023.0,11111222 
LUMCON,ioos:station:LUMCON:103:1,2011-01-27T19:00:00Z,30.1889,-90.1683,1021.7,11111222 
LUMCON,ioos:station:LUMCON:103:1,2011-01-27T20:00:00Z,30.1889,-90.1683,1020.5,11111222 
LUMCON,ioos:station:LUMCON:103:1,2011-01-27T21:00:00Z,30.1889,-90.1683,1027.2,1111122 
LUMCON,ioos:station:LUMCON:103:1,2011-01-27T22:00:00Z,30.1889,-90.1683,1019.5,1111122 
LUMCON,ioos:station:LUMCON:103:1,2011-01-27T23:00:00Z,30.1889,-90.1683,1019.4,1111122 
LUMCON,ioos:station:LUMCON:103:1,2011-01-28T00:00:00Z,30.1889,-90.1683,1019.3,1111122 
LUMCON,ioos:station:LUMCON:103:1,2011-01-28T01:00:00Z,30.1889,-90.1683,1019.6,1111122 
LUMCON,ioos:station:LUMCON:103:1,2011-01-28T02:00:00Z,30.1889,-90.1683,1019.7,1111122 
LUMCON,ioos:station:LUMCON:103:1,2011-01-28T03:00:00Z,30.1889,-90.1683,1019.9,1111122 
LUMCON,ioos:station:LUMCON:103:1,2011-01-28T04:00:00Z,30.1889,-90.1683,1020.1,1111122 
LUMCON,ioos:station:LUMCON:103:1,2011-01-28T05:00:00Z,30.1889,-90.1683,1020.1,1111122 
LUMCON,ioos:station:LUMCON:103:1,2011-01-28T06:00:00Z,30.1889,-90.1683,1020.0,1111122 
LUMCON,ioos:station:LUMCON:103:1,2011-01-28T07:00:00Z,30.1889,-90.1683,1019.6,1111122 
LUMCON,ioos:station:LUMCON:103:1,2011-01-28T08:00:00Z,30.1889,-90.1683,1019.4,1111122 
LUMCON,ioos:station:LUMCON:103:1,2011-01-28T09:00:00Z,30.1889,-90.1683,1019.2,1111122 
LUMCON,ioos:station:LUMCON:103:1,2011-01-28T10:00:00Z,30.1889,-90.1683,1018.9,1111122 
LUMCON,ioos:station:LUMCON:103:1,2011-01-28T11:00:00Z,30.1889,-90.1683,1018.9,1111122 
LUMCON,ioos:station:LUMCON:103:1,2011-01-28T12:00:00Z,30.1889,-90.1683,1019.2,1111122 
LUMCON,ioos:station:LUMCON:103:1,2011-01-28T13:00:00Z,30.1889,-90.1683,1019.6,1111122 
LUMCON,ioos:station:LUMCON:103:1,2011-01-28T14:00:00Z,30.1889,-90.1683,1020.0,1111122 
LUMCON,ioos:station:LUMCON:103:1,2011-01-28T15:00:00Z,30.1889,-90.1683,1020.3,1111122 
LUMCON,ioos:station:LUMCON:103:1,2011-01-28T16:00:00Z,30.1889,-90.1683,1020.6,1111122 
LUMCON,ioos:station:LUMCON:103:1,2011-01-28T17:00:00Z,30.1889,-90.1683,1020.4,1111122 
LUMCON,ioos:station:LUMCON:103:1,2011-01-28T18:00:00Z,30.1889,-90.1683,1019.5,1111122 
LUMCON,ioos:station:LUMCON:103:1,2011-01-28T19:00:00Z,30.1889,-90.1683,1018.5,11111222 
LUMCON,ioos:station:LUMCON:103:1,2011-01-28T20:00:00Z,30.1889,-90.1683,1017.9,11111222 
LUMCON,ioos:station:LUMCON:103:1,2011-01-28T21:00:00Z,30.1889,-90.1683,1017.5,11111222 
LUMCON,ioos:station:LUMCON:103:1,2011-01-28T22:00:00Z,30.1889,-90.1683,1017.3,11111222 
LUMCON,ioos:station:LUMCON:103:1,2011-01-28T23:00:00Z,30.1889,-90.1683,1017.4,1111122 
LUMCON,ioos:station:LUMCON:103:1,2011-01-29T00:00:00Z,30.1889,-90.1683,1017.8,1111122 
LUMCON,ioos:station:LUMCON:103:1,2011-01-29T01:00:00Z,30.1889,-90.1683,1018.4,1111122 
LUMCON,ioos:station:LUMCON:103:1,2011-01-29T02:00:00Z,30.1889,-90.1683,1018.9,1111122 
LUMCON,ioos:station:LUMCON:103:1,2011-01-29T03:00:00Z,30.1889,-90.1683,1019.0,1111122 
LUMCON,ioos:station:LUMCON:103:1,2011-01-29T04:00:00Z,30.1889,-90.1683,1019.1,1111122 
LUMCON,ioos:station:LUMCON:103:1,2011-01-29T05:00:00Z,30.1889,-90.1683,1019.2,1111122 
LUMCON,ioos:station:LUMCON:103:1,2011-01-29T06:00:00Z,30.1889,-90.1683,1019.0,1111122 
LUMCON,ioos:station:LUMCON:103:1,2011-01-29T07:00:00Z,30.1889,-90.1683,1019.0,1111122 
LUMCON,ioos:station:LUMCON:103:1,2011-01-29T08:00:00Z,30.1889,-90.1683,1018.7,1111122 
LUMCON,ioos:station:LUMCON:103:1,2011-01-29T09:00:00Z,30.1889,-90.1683,1018.6,1111122 
LUMCON,ioos:station:LUMCON:103:1,2011-01-29T10:00:00Z,30.1889,-90.1683,1018.7,1111122 
LUMCON,ioos:station:LUMCON:103:1,2011-01-29T11:00:00Z,30.1889,-90.1683,1019.0,1111122 
LUMCON,ioos:station:LUMCON:103:1,2011-01-29T12:00:00Z,30.1889,-90.1683,1019.4,1111122 
LUMCON,ioos:station:LUMCON:103:1,2011-01-29T13:00:00Z,30.1889,-90.1683,1019.9,1111122 
LUMCON,ioos:station:LUMCON:103:1,2011-01-29T14:00:00Z,30.1889,-90.1683,1020.4,1111122 
LUMCON,ioos:station:LUMCON:103:1,2011-01-29T15:00:00Z,30.1889,-90.1683,1021.1,1111122 
LUMCON,ioos:station:LUMCON:103:1,2011-01-29T16:00:00Z,30.1889,-90.1683,1021.8,1111122 
LUMCON,ioos:station:LUMCON:103:1,2011-01-29T17:00:00Z,30.1889,-90.1683,1021.8,1111122 
LUMCON,ioos:station:LUMCON:103:1,2011-01-29T18:00:00Z,30.1889,-90.1683,1021.1,1111122 
LUMCON,ioos:station:LUMCON:103:1,2011-01-29T19:00:00Z,30.1889,-90.1683,1020.2,1111122 
LUMCON,ioos:station:LUMCON:103:1,2011-01-29T20:00:00Z,30.1889,-90.1683,1019.4,1111122 
LUMCON,ioos:station:LUMCON:103:1,2011-01-29T21:00:00Z,30.1889,-90.1683,1019.1,1111122 
LUMCON,ioos:station:LUMCON:103:1,2011-01-29T22:00:00Z,30.1889,-90.1683,1019.1,1111122 
LUMCON,ioos:station:LUMCON:103:1,2011-01-29T23:00:00Z,30.1889,-90.1683,1019.1,1111122 
LUMCON,ioos:station:LUMCON:103:1,2011-01-30T00:00:00Z,30.1889,-90.1683,1019.1,1111122 
LUMCON,ioos:station:LUMCON:103:1,2011-01-30T01:00:00Z,30.1889,-90.1683,1019.3,1111122 
LUMCON,ioos:station:LUMCON:103:1,2011-01-30T02:00:00Z,30.1889,-90.1683,1019.6,1111122 
LUMCON,ioos:station:LUMCON:103:1,2011-01-30T03:00:00Z,30.1889,-90.1683,1019.9,1111122 
LUMCON,ioos:station:LUMCON:103:1,2011-01-30T04:00:00Z,30.1889,-90.1683,1019.8,1111122 
LUMCON,ioos:station:LUMCON:103:1,2011-01-30T05:00:00Z,30.1889,-90.1683,1019.5,1111122 
LUMCON,ioos:station:LUMCON:103:1,2011-01-30T06:00:00Z,30.1889,-90.1683,1019.3,1111122 
LUMCON,ioos:station:LUMCON:103:1,2011-01-30T07:00:00Z,30.1889,-90.1683,1019.0,1111122 
LUMCON,ioos:station:LUMCON:103:1,2011-01-30T08:00:00Z,30.1889,-90.1683,1018.7,1111122 
LUMCON,ioos:station:LUMCON:103:1,2011-01-30T09:00:00Z,30.1889,-90.1683,1018.5,1111122 
LUMCON,ioos:station:LUMCON:103:1,2011-01-30T10:00:00Z,30.1889,-90.1683,1018.5,1111122 
LUMCON,ioos:station:LUMCON:103:1,2011-01-30T11:00:00Z,30.1889,-90.1683,1018.6,1111122 
LUMCON,ioos:station:LUMCON:103:1,2011-01-30T12:00:00Z,30.1889,-90.1683,1019.1,1111122 
LUMCON,ioos:station:LUMCON:103:1,2011-01-30T13:00:00Z,30.1889,-90.1683,1019.5,1111122 
LUMCON,ioos:station:LUMCON:103:1,2011-01-30T14:00:00Z,30.1889,-90.1683,1013.1,1111122 
LUMCON,ioos:station:LUMCON:103:1,2011-01-30T15:00:00Z,30.1889,-90.1683,1020.7,1111122 
LUMCON,ioos:station:LUMCON:103:1,2011-01-30T16:00:00Z,30.1889,-90.1683,1020.9,1111122 
LUMCON,ioos:station:LUMCON:103:1,2011-01-30T17:00:00Z,30.1889,-90.1683,1020.7,1111122 
LUMCON,ioos:station:LUMCON:103:1,2011-01-30T18:00:00Z,30.1889,-90.1683,1019.7,1111122 
LUMCON,ioos:station:LUMCON:103:1,2011-01-30T19:00:00Z,30.1889,-90.1683,1018.4,1111122 
LUMCON,ioos:station:LUMCON:103:1,2011-01-30T20:00:00Z,30.1889,-90.1683,1017.7,1111122 
LUMCON,ioos:station:LUMCON:103:1,2011-01-30T21:00:00Z,30.1889,-90.1683,1017.4,1111122 
LUMCON,ioos:station:LUMCON:103:1,2011-01-30T23:00:00Z,30.1889,-90.1683,1016.6,1111122 
LUMCON,ioos:station:LUMCON:103:1,2011-01-31T00:00:00Z,30.1889,-90.1683,1017.4,1111122 
LUMCON,ioos:station:LUMCON:103:1,2011-01-31T01:00:00Z,30.1889,-90.1683,1017.6,1111122 
LUMCON,ioos:station:LUMCON:103:1,2011-01-31T02:00:00Z,30.1889,-90.1683,1018.4,1111122 
LUMCON,ioos:station:LUMCON:103:1,2011-01-31T03:00:00Z,30.1889,-90.1683,1017.9,1111122 
LUMCON,ioos:station:LUMCON:103:1,2011-01-31T04:00:00Z,30.1889,-90.1683,1017.2,1111122 
LUMCON,ioos:station:LUMCON:103:1,2011-01-31T05:00:00Z,30.1889,-90.1683,1016.4,1111122 
LUMCON,ioos:station:LUMCON:103:1,2011-01-31T06:00:00Z,30.1889,-90.1683,1016.0,1111122 
LUMCON,ioos:station:LUMCON:103:1,2011-01-31T07:00:00Z,30.1889,-90.1683,1016.2,1111122 
LUMCON,ioos:station:LUMCON:103:1,2011-01-31T08:00:00Z,30.1889,-90.1683,1016.0,1111122 
LUMCON,ioos:station:LUMCON:103:1,2011-01-31T09:00:00Z,30.1889,-90.1683,1016.0,1111122 
LUMCON,ioos:station:LUMCON:103:1,2011-01-31T10:00:00Z,30.1889,-90.1683,1016.4,1111122 
LUMCON,ioos:station:LUMCON:103:1,2011-01-31T11:00:00Z,30.1889,-90.1683,1016.7,1111122 
LUMCON,ioos:station:LUMCON:103:1,2011-01-31T12:00:00Z,30.1889,-90.1683,1017.2,1111122 
LUMCON,ioos:station:LUMCON:103:1,2011-01-31T13:00:00Z,30.1889,-90.1683,1017.7,1111122 
LUMCON,ioos:station:LUMCON:103:1,2011-01-31T14:00:00Z,30.1889,-90.1683,1018.3,1111122 
LUMCON,ioos:station:LUMCON:103:1,2011-01-31T15:00:00Z,30.1889,-90.1683,1018.6,1111122 
LUMCON,ioos:station:LUMCON:103:1,2011-01-31T16:00:00Z,30.1889,-90.1683,1018.9,1111122 
LUMCON,ioos:station:LUMCON:103:1,2011-01-31T17:00:00Z,30.1889,-90.1683,1018.6,1111122 